Regional Weather Roundup
Issued by NWS

Home | Current Version | Previous Version | Graphics & Text | Print | Product List | Glossary On
Versions: 1 2 3 4 5 6 7 8 9 10 11 12 13 14 15 16 17 18 19 20 21 22 23 24 25 26 27 28 29 30 31 32 33 34 35 36 37 38 39 40 41 42 43 44 45 46
000
ASUS45 KSLC 101110
RWRUT

UTAH REGIONAL WEATHER ROUNDUP
NATIONAL WEATHER SERVICE SALT LAKE CITY UT
500 AM MDT THU JUL 10 2014

UTZ001>011-023>025-101200-

NORTHERN UTAH

CITY           SKY/WX    TMP DP  RH WIND       PRES   REMARKS
HILL AFB       CLOUDY    75  54  47 S10       30.02R
LOGAN          CLOUDY    69  57  65 NW5       30.00R
OGDEN          CLOUDY    74  52  46 SE7       29.99S
PROVO AIRPORT  MOCLDY    68  55  64 CALM      30.04R
SALT LAKE CITY CLOUDY    71  60  68 SE9       29.99R
VERNAL         MOCLDY    66  53  63 CALM      30.07S
WENDOVER       MOCLDY    79  48  34 NW9       29.97S
HEBER CITY     MOCLDY    61  54  77 CALM      30.10F
WEST JORDAN    CLOUDY    70  64  83 S3        30.03S

$$

UTZ012>022-026-027-101200-

SOUTHERN UTAH

CITY           SKY/WX    TMP DP  RH WIND       PRES   REMARKS
BRYCE CANYON   CLOUDY    57  50  77 CALM      30.27S
CEDAR CITY     MOCLDY    68  50  52 CALM      30.10S
MILFORD        MOCLDY    72  52  49 SW12      30.04F
MOAB/CYNLANDS  PTCLDY    70  61  73 CALM      30.06R
PRICE          CLOUDY    64  57  78 NE5       30.15S
ST GEORGE      NOT AVBL

$$

REGIONAL REPORTS     COLORADO/ARIZONA

CITY           SKY/WX    TMP DP  RH WIND       PRES   REMARKS
CRAIG, CO      PTCLDY    48  45  89 CALM      30.18R
GRAND JUNCTION MOCLDY    66  49  54 CALM      30.10R
RIFLE          PTCLDY    60  45  57 NE3       30.15R
MONTROSE       CLOUDY    66  45  46 SE8       30.19R
CORTEZ         MOCLDY    62  52  69 NE6       30.21R
PAGE, AZ       MOCLDY    76  49  38 SE7       30.04S
GRAND CANYON   MOCLDY    56  54  93 E3        30.23S
KINGMAN        MOCLDY    76  62  62 SE7       29.99F
FLAGSTAFF      MOCLDY    54  50  86 CALM      30.26S

$$

REGIONAL REPORTS    NEVADA/IDAHO/WYOMING

CITY           SKY/WX    TMP DP  RH WIND       PRES   REMARKS
LAS VEGAS, NV  MOCLDY    85  60  42 SW7       29.81S
ELY            CLOUDY    57  53  86 S7        30.15S
ELKO           PTCLDY    57  55  93 SW5       30.07S
POCATELLO, ID  PTCLDY    68  51  54 SW10      29.99R
BURLEY         CLOUDY    68  51  54 S6        29.97S
EVANSTON, WY   MOCLDY    62  48  60 SW8       30.18F
ROCK SPRINGS   PTCLDY    65  42  43 SW15      30.14S

$$


USA.gov is the U.S. government's official web portal to all federal, state and local government web resources and services.